{"data":{"norad_id":44751,"intl_designator":"2019-074AQ","name":"STARLINK-1046","alt_names":[],"object_type":"PAYLOAD","status":"ACTIVE","operator":null,"country":"US","launch_date":"2019-11-11","launch_site_code":"AFETR","launch_vehicle":null,"mission":null,"orbit_class":"UNKNOWN","rcs_meters":null,"size_class":null,"mass_kg":null,"dimensions":null,"purposes":["comms"],"wikipedia_slug":null,"has_3d_model":false,"image_url":null,"decayed_at":null,"tle_current":{"epoch":"2026-09-19T19:10:57.372096Z","epoch_age_seconds":74790,"freshness":"FRESH","line1":"1 44751U 19074AQ  26262.79927514  .00038221  00000+0  29894-3 0  9994","line2":"2 44751  53.0431 349.6642 0003637   1.9123 358.1907 15.71256778378659","mean_motion":15.71256778,"eccentricity":0.0003637,"inclination_deg":53.0431,"raan_deg":349.6642,"arg_perigee_deg":1.9123,"mean_anomaly_deg":358.1907,"bstar":0.00029894,"rev_number":37865,"period_min":91.646382702191,"perigee_km":352.85514283732,"apogee_km":357.75304789009,"semimajor_km":6733.4410953637,"source":"CELESTRAK","updated_at":"2026-09-20T09:00:38.219728Z"}}}